CAPE
1 2 4 2 0 7 2 5 23 42 38 27 101 172 183 267 192 79 57 129 162 101 289 76 40 37 63 0 0 0 3 0 0 0 32 16 25 16 273 511 770 911 1023 954 1248
2 2 2 1 6 0 2 14 23 67 129 61 86 170 136 273 120 122 249 245 299 305 254 81 41 22 42 1 0 24 6 0 0 0 41 23 7 55 234 519 574 996 1185 1292 1184
2 1 0 0 0 0 14 43 49 93 127 125 161 314 445 45 109 113 366 411 492 239 168 69 69 52 45 26 0 4 9 0 0 0 53 39 30 3 142 237 189 982 1181 1168 1116
1 1 0 0 0 0 13 43 66 63 37 42 127 541 327 0 21 106 224 214 258 187 84 25 51 20 42 12 1 5 7 0 0 21 56 10 31 17 0 0 1 741 1233 1093 1042
1 0 0 0 0 0 0 24 31 0 16 169 423 286 0 5 6 35 136 27 45 80 37 3 0 1 27 24 32 12 0 0 0 25 33 60 34 24 1 2 238 558 956 984 998
0 0 0 0 0 0 0 12 31 11 0 91 452 28 0 0 26 17 46 49 38 44 15 0 0 0 0 1 5 0 0 0 0 76 62 84 42 0 0 105 510 519 416 634 834
0 0 0 0 0 0 0 0 47 20 15 63 31 0 2 1 20 54 33 58 28 32 0 0 0 1 0 0 0 15 27 0 0 93 53 54 22 0 0 0 461 425 332 557 594
1 0 0 0 0 0 0 0 1 6 18 31 31 1 0 1 7 8 32 42 5 5 17 13 1 0 0 0 18 23 19 12 11 62 39 36 3 0 0 0 96 428 548 526 555
2 1 0 0 0 0 0 0 0 0 38 38 1 2 0 9 2 6 0 4 7 9 0 24 13 3 0 0 0 6 0 22 35 59 50 35 20 11 1 13 1 43 518 687 701
2 1 0 0 0 0 0 0 0 0 1 0 0 0 3 0 13 56 5 12 24 0 0 2 17 1 0 0 0 0 0 14 26 7 39 31 15 11 3 5 14 71 265 416 480
2 1 0 0 0 0 0 0 0 0 0 0 0 0 0 7 0 12 4 4 2 17 0 16 0 0 0 0 0 8 0 18 23 11 11 0 0 0 0 0 5 132 346 396 452
2 0 0 0 0 0 0 0 0 0 0 0 0 0 0 3 1 0 0 0 0 0 5 0 0 0 1 4 26 27 18 86 30 25 22 0 1 0 0 0 0 0 7 8 4
1 0 0 0 0 0 0 0 0 0 0 0 0 0 0 0 0 0 0 0 0 14 11 0 0 2 6 18 22 35 22 65 41 19 9 0 0 0 0 0 0 0 0 0 0
0 0 0 0 0 0 0 0 0 0 0 0 0 0 0 0 0 0 4 0 5 0 7 6 8 14 16 36 54 49 53 61 38 13 0 0 0 0 0 0 0 0 0 0 0
0 0 0 0 0 0 0 0 0 0 0 0 0 0 0 0 0 0 0 23 11 0 0 1 19 0 12 22 0 42 42 5 24 1 0 0 0 0 0 0 0 0 0 0 0
0 0 0 0 0 0 0 0 0 0 0 0 0 0 0 0 0 0 0 0 0 0 0 2 0 1 7 0 6 15 2 0 15 0 0 0 0 0 0 0 0 0 0 0 0
0 0 0 0 0 0 0 0 0 0 0 0 0 0 0 0 0 0 0 0 0 0 0 0 0 0 2 0 0 0 0 0 0 0 0 0 0 0 0 0 0 0 0 0 0
0 0 0 0 0 0 0 0 0 0 0 0 0 0 0 0 0 0 0 0 0 0 0 0 0 0 0 0 0 0 0 0 0 0 0 0 0 0 0 0 0 0 0 0 0
0 0 0 0 0 0 0 0 0 0 0 0 0 0 0 0 0 0 0 0 0 0 0 0 0 0 0 0 0 0 0 0 0 0 0 0 0 0 0 0 0 0 0 0 0
0 0 0 0 0 0 0 0 0 0 0 0 0 0 0 0 0 0 0 0 0 0 0 0 0 0 0 0 0 0 0 0 0 0 0 0 0 0 0 0 0 0 0 0 0
0 0 0 0 0 0 0 0 0 0 0 0 0 0 0 0 0 0 0 0 0 0 0 0 0 0 0 0 0 0 0 0 0 0 0 0 0 0 0 0 0 0 0 0 0
0 0 0 0 0 0 0 0 0 0 0 0 0 0 0 0 0 0 0 0 0 0 0 0 0 0 0 0 0 0 0 0 0 0 0 0 0 0 0 0 0 0 0 0 0
0 0 0 0 0 0 0 0 0 0 0 0 0 0 0 0 0 0 0 0 0 0 0 0 0 0 0 0 0 0 0 0 0 0 0 0 0 0 0 0 0 0 0 0 0
0 0 0 0 0 0 0 0 0 0 0 0 0 0 0 0 0 0 0 0 0 0 0 0 0 0 0 0 0 0 0 0 0 0 0 0 0 0 0 0 0 0 0 0 0
0 0 0 0 0 0 0 0 0 0 0 0 0 0 0 0 0 0 0 0 0 0 0 0 0 0 0 0 0 0 0 0 0 0 0 0 0 0 0 0 0 0 0 0 0
0 0 0 0 0 0 0 0 0 0 0 0 0 0 0 0 0 0 0 0 0 0 0 0 0 0 0 0 0 0 0 0 0 0 0 0 0 0 0 0 0 0 0 0 0
0 0 0 0 0 0 0 0 0 0 0 0 0 0 0 0 0 0 0 0 0 0 0 0 0 0 0 0 0 0 0 0 0 0 0 0 0 0 0 0 0 0 0 0 0
CIN
0 0 0 0 0 -26 0 0 -10 -64 -44 -58 -9 -4 -10 -11 -24 -36 -16 -13 -15 -10 -10 -21 -23 -6 -10 0 0 0 -3 0 0 0 -5 -14 -0 -46 -41 -75 -87 -105 -185 -173 -100
0 0 0 0 -42 -0 0 -11 -26 -54 -38 -91 -50 -15 -25 -22 -38 -9 -13 -13 -10 -22 -23 -29 -13 -4 -56 -10 0 -2 -1 0 0 0 -5 -8 -1 -54 -46 -86 -246 -158 -143 -102 -96
0 0 0 0 0 0 -40 -17 -37 -55 -60 -50 -31 -20 -15 -59 -16 -3 -0 -3 -1 -17 -31 -24 -43 -30 -79 -10 0 -1 -1 0 0 0 -6 -14 -4 -24 -64 -100 -216 -163 -133 -116 -107
0 0 0 0 0 0 -60 -33 -60 -87 -117 -88 -56 -26 -52 -2 -1 -7 -6 -14 -15 -27 -21 -31 -54 -8 -62 -6 -1 -2 -1 0 0 -2 -13 -32 -8 -13 0 0 -110 -163 -110 -138 -137
0 0 0 0 0 0 0 -57 -82 0 -119 -57 -46 -67 0 -21 -11 -27 -18 -33 -55 -29 -15 -12 0 -21 -79 -0 -6 -4 0 0 0 -3 -9 -10 -19 -9 -9 -31 -249 -201 -115 -126 -121
0 0 0 0 0 0 0 -101 -103 -99 0 -87 -52 -63 0 0 -15 -35 -23 -29 -32 -30 -10 0 0 0 0 -0 -8 0 0 0 0 -2 -2 -16 -10 0 -2 -60 -200 -189 -195 -166 -139
0 0 0 0 0 0 0 0 -136 -140 -110 -120 -83 0 -1 0 -1 -36 -45 -20 -33 -19 0 0 0 -4 0 0 0 -20 -3 0 0 -6 -8 -8 -10 0 0 -4 -125 -142 -167 -152 -176
0 0 0 0 0 0 0 0 -35 -171 -149 -117 -89 -4 -1 -11 -0 -4 -13 -10 -35 -23 -14 -19 -13 0 0 0 -7 -21 -11 -7 -8 -9 -6 -4 -2 0 0 -10 -111 -111 -106 -153 -169
0 0 0 0 0 0 0 0 0 0 -194 -138 -2 -8 0 -27 0 0 0 -0 -4 -7 0 -18 -51 -54 0 -0 0 -1 0 -22 -1 -7 -5 -6 -4 -16 -90 -178 -81 -191 -111 -107 -95
0 0 0 0 0 0 0 0 0 0 -36 0 0 0 -2 0 0 -6 -19 -0 -1 0 0 -0 -53 -2 -4 0 0 0 0 -46 -2 -5 -3 -4 -3 -7 -79 -168 -192 -214 -186 -149 -121
0 0 0 0 0 0 0 0 0 0 0 0 0 0 0 -48 -3 -2 -38 -27 -18 -28 -0 -42 0 0 0 0 0 -21 0 -54 -4 -2 -3 0 0 0 0 0 -185 -192 -151 -122 -90
0 0 0 0 0 0 0 0 0 0 0 0 0 0 0 -67 -25 0 0 0 0 0 -0 0 -2 -1 -3 -3 -7 -3 -11 -29 -35 -85 -117 0 -14 0 0 0 0 0 -200 -209 -235
0 0 0 0 0 0 0 0 0 0 0 0 0 0 0 0 0 -0 0 0 -0 -1 -11 0 0 -2 -10 -23 -20 -12 -26 -38 -76 -82 -55 0 0 0 0 0 0 0 0 0 0
0 0 0 0 0 0 0 0 0 0 0 0 0 0 0 0 0 0 -4 -0 -1 0 -4 -2 -5 -5 -10 -29 -5 -1 -20 -39 -55 -41 -2 0 0 0 0 0 0 0 0 0 0
0 0 0 0 0 0 0 0 0 0 0 0 0 0 0 0 0 0 0 -8 -3 -0 -0 -2 -5 0 -6 -18 -0 -24 -13 -72 -19 -1 0 0 0 0 0 0 0 0 0 0 0
0 0 0 0 0 0 0 0 0 0 0 0 0 0 0 0 0 0 0 0 0 0 0 -3 0 -2 -5 0 -12 -18 -15 0 -12 0 0 0 0 0 0 0 0 0 0 0 0
0 0 0 0 0 0 0 0 0 0 0 0 0 0 0 0 0 0 0 0 0 0 0 -5 -3 0 -18 0 -9 0 0 0 0 0 0 0 0 0 0 0 0 0 0 0 0
0 0 0 0 0 0 0 0 0 0 0 0 0 0 0 0 0 0 0 0 0 0 0 0 0 -3 0 0 0 0 0 0 0 0 0 0 0 0 0 0 0 0 0 0 0
0 0 0 0 0 0 0 0 0 0 0 0 0 0 0 0 0 0 0 0 0 0 0 0 0 0 0 0 0 0 0 0 0 0 0 0 0 0 0 0 0 0 0 0 0
0 0 0 0 0 0 0 0 0 0 0 0 0 0 0 0 0 0 0 0 0 0 0 0 0 0 0 0 0 0 0 0 0 0 0 0 0 0 0 0 0 0 0 0 0
0 0 0 0 0 0 0 0 0 0 0 0 0 0 0 0 0 0 0 0 0 0 0 0 0 0 0 0 0 0 0 0 0 0 0 0 0 0 0 0 0 0 0 0 0
0 0 0 0 0 0 0 0 0 0 0 0 0 0 0 0 0 0 0 0 0 0 0 0 0 0 0 0 0 0 0 0 0 0 0 0 0 0 0 0 0 0 0 0 0
0 0 0 0 0 0 0 0 0 0 0 0 0 0 0 0 0 0 0 0 0 0 0 0 0 0 0 0 0 0 0 0 0 0 0 0 0 0 0 0 0 0 0 0 0
0 0 0 0 0 0 0 0 0 0 0 0 0 0 0 0 0 0 0 0 0 0 0 0 0 0 0 0 0 0 0 0 0 0 0 0 0 0 0 0 0 0 0 0 0
0 0 0 0 0 0 0 0 0 0 0 0 0 0 0 0 0 0 0 0 0 0 0 0 0 0 0 0 0 0 0 0 0 0 0 0 0 0 0 0 0 0 0 0 0
0 0 0 0 0 0 0 0 0 0 0 0 0 0 0 0 0 0 0 0 0 0 0 0 0 0 0 0 0 0 0 0 0 0 0 0 0 0 0 0 0 0 0 0 0
0 0 0 0 0 0 0 0 0 0 0 0 0 0 0 0 0 0 0 0 0 0 0 0 0 0 0 0 0 0 0 0 0 0 0 0 0 0 0 0 0 0 0 0 0
Wind_Speed
nan nan nan nan nan nan nan nan nan nan nan nan 7 6 8 9 11 nan nan 24 32 33 41 nan nan nan nan nan nan nan nan nan nan nan nan nan nan nan 55 49 46 43 31 33 29
nan nan nan nan nan nan nan nan nan nan 15 nan nan 4 5 8 2 10 14 19 22 29 36 nan nan nan nan nan nan nan nan nan nan nan nan nan nan nan 58 47 45 37 42 40 36
nan nan nan nan nan nan nan nan nan nan 15 14 7 2 2 nan 7 14 19 18 21 25 34 nan nan nan nan nan nan nan nan nan nan nan nan nan nan nan 53 46 39 31 32 32 33
nan nan nan nan nan nan nan nan nan nan nan nan 6 4 5 nan nan 15 17 20 23 20 nan nan nan nan nan nan nan nan nan nan nan nan nan nan nan nan nan nan nan 33 29 34 33
nan nan nan nan nan nan nan nan nan nan nan 13 10 8 nan nan nan nan 19 nan nan nan nan nan nan nan nan nan nan nan nan nan nan nan nan nan nan nan nan nan 52 39 33 28 30
nan nan nan nan nan nan nan nan nan nan nan nan 14 nan nan nan nan nan nan nan nan nan nan nan nan nan nan nan nan nan nan nan nan nan nan nan nan nan nan 61 49 37 31 26 27
nan nan nan nan nan nan nan nan nan nan nan nan nan nan nan nan nan nan nan nan nan nan nan nan nan nan nan nan nan nan nan nan nan nan nan nan nan nan nan nan 43 32 28 25 30
nan nan nan nan nan nan nan nan nan nan nan nan nan nan nan nan nan nan nan nan nan nan nan nan nan nan nan nan nan nan nan nan nan nan nan nan nan nan nan nan nan 22 22 26 26
nan nan nan nan nan nan nan nan nan nan nan nan nan nan nan nan nan nan nan nan nan nan nan nan nan nan nan nan nan nan nan nan nan nan nan nan nan nan nan nan nan nan 28 28 29
nan nan nan nan nan nan nan nan nan nan nan nan nan nan nan nan nan nan nan nan nan nan nan nan nan nan nan nan nan nan nan nan nan nan nan nan nan nan nan nan nan nan 35 34 31
nan nan nan nan nan nan nan nan nan nan nan nan nan nan nan nan nan nan nan nan nan nan nan nan nan nan nan nan nan nan nan nan nan nan nan nan nan nan nan nan nan 33 32 29 28
nan nan nan nan nan nan nan nan nan nan nan nan nan nan nan nan nan nan nan nan nan nan nan nan nan nan nan nan nan nan nan nan nan nan nan nan nan nan nan nan nan nan nan nan nan
nan nan nan nan nan nan nan nan nan nan nan nan nan nan nan nan nan nan nan nan nan nan nan nan nan nan nan nan nan nan nan nan nan nan nan nan nan nan nan nan nan nan nan nan nan
nan nan nan nan nan nan nan nan nan nan nan nan nan nan nan nan nan nan nan nan nan nan nan nan nan nan nan nan nan nan nan nan nan nan nan nan nan nan nan nan nan nan nan nan nan
nan nan nan nan nan nan nan nan nan nan nan nan nan nan nan nan nan nan nan nan nan nan nan nan nan nan nan nan nan nan nan nan nan nan nan nan nan nan nan nan nan nan nan nan nan
nan nan nan nan nan nan nan nan nan nan nan nan nan nan nan nan nan nan nan nan nan nan nan nan nan nan nan nan nan nan nan nan nan nan nan nan nan nan nan nan nan nan nan nan nan
nan nan nan nan nan nan nan nan nan nan nan nan nan nan nan nan nan nan nan nan nan nan nan nan nan nan nan nan nan nan nan nan nan nan nan nan nan nan nan nan nan nan nan nan nan
nan nan nan nan nan nan nan nan nan nan nan nan nan nan nan nan nan nan nan nan nan nan nan nan nan nan nan nan nan nan nan nan nan nan nan nan nan nan nan nan nan nan nan nan nan
nan nan nan nan nan nan nan nan nan nan nan nan nan nan nan nan nan nan nan nan nan nan nan nan nan nan nan nan nan nan nan nan nan nan nan nan nan nan nan nan nan nan nan nan nan
nan nan nan nan nan nan nan nan nan nan nan nan nan nan nan nan nan nan nan nan nan nan nan nan nan nan nan nan nan nan nan nan nan nan nan nan nan nan nan nan nan nan nan nan nan
nan nan nan nan nan nan nan nan nan nan nan nan nan nan nan nan nan nan nan nan nan nan nan nan nan nan nan nan nan nan nan nan nan nan nan nan nan nan nan nan nan nan nan nan nan
nan nan nan nan nan nan nan nan nan nan nan nan nan nan nan nan nan nan nan nan nan nan nan nan nan nan nan nan nan nan nan nan nan nan nan nan nan nan nan nan nan nan nan nan nan
nan nan nan nan nan nan nan nan nan nan nan nan nan nan nan nan nan nan nan nan nan nan nan nan nan nan nan nan nan nan nan nan nan nan nan nan nan nan nan nan nan nan nan nan nan
nan nan nan nan nan nan nan nan nan nan nan nan nan nan nan nan nan nan nan nan nan nan nan nan nan nan nan nan nan nan nan nan nan nan nan nan nan nan nan nan nan nan nan nan nan
nan nan nan nan nan nan nan nan nan nan nan nan nan nan nan nan nan nan nan nan nan nan nan nan nan nan nan nan nan nan nan nan nan nan nan nan nan nan nan nan nan nan nan nan nan
nan nan nan nan nan nan nan nan nan nan nan nan nan nan nan nan nan nan nan nan nan nan nan nan nan nan nan nan nan nan nan nan nan nan nan nan nan nan nan nan nan nan nan nan nan
nan nan nan nan nan nan nan nan nan nan nan nan nan nan nan nan nan nan nan nan nan nan nan nan nan nan nan nan nan nan nan nan nan nan nan nan nan nan nan nan nan nan nan nan nan
Wind_Direction
nan nan nan nan nan nan nan nan nan nan nan nan 311 283 264 241 239 nan nan 211 216 217 223 nan nan nan nan nan nan nan nan nan nan nan nan nan nan nan 222 229 225 214 234 257 262
nan nan nan nan nan nan nan nan nan nan 3 nan nan 345 290 237 263 218 202 201 215 221 221 nan nan nan nan nan nan nan nan nan nan nan nan nan nan nan 228 224 230 227 233 253 261
nan nan nan nan nan nan nan nan nan nan 351 350 358 23 358 nan 236 207 193 211 212 219 210 nan nan nan nan nan nan nan nan nan nan nan nan nan nan nan 236 222 232 238 249 251 260
nan nan nan nan nan nan nan nan nan nan nan nan 0 40 65 nan nan 204 206 204 202 194 nan nan nan nan nan nan nan nan nan nan nan nan nan nan nan nan nan nan nan 241 249 249 261
nan nan nan nan nan nan nan nan nan nan nan 27 34 40 nan nan nan nan 215 nan nan nan nan nan nan nan nan nan nan nan nan nan nan nan nan nan nan nan nan nan 227 231 234 254 249
nan nan nan nan nan nan nan nan nan nan nan nan 60 nan nan nan nan nan nan nan nan nan nan nan nan nan nan nan nan nan nan nan nan nan nan nan nan nan nan 227 225 227 230 243 253
nan nan nan nan nan nan nan nan nan nan nan nan nan nan nan nan nan nan nan nan nan nan nan nan nan nan nan nan nan nan nan nan nan nan nan nan nan nan nan nan 239 219 229 244 251
nan nan nan nan nan nan nan nan nan nan nan nan nan nan nan nan nan nan nan nan nan nan nan nan nan nan nan nan nan nan nan nan nan nan nan nan nan nan nan nan nan 231 245 249 249
nan nan nan nan nan nan nan nan nan nan nan nan nan nan nan nan nan nan nan nan nan nan nan nan nan nan nan nan nan nan nan nan nan nan nan nan nan nan nan nan nan nan 238 250 256
nan nan nan nan nan nan nan nan nan nan nan nan nan nan nan nan nan nan nan nan nan nan nan nan nan nan nan nan nan nan nan nan nan nan nan nan nan nan nan nan nan nan 239 246 256
nan nan nan nan nan nan nan nan nan nan nan nan nan nan nan nan nan nan nan nan nan nan nan nan nan nan nan nan nan nan nan nan nan nan nan nan nan nan nan nan nan 236 242 247 252
nan nan nan nan nan nan nan nan nan nan nan nan nan nan nan nan nan nan nan nan nan nan nan nan nan nan nan nan nan nan nan nan nan nan nan nan nan nan nan nan nan nan nan nan nan
nan nan nan nan nan nan nan nan nan nan nan nan nan nan nan nan nan nan nan nan nan nan nan nan nan nan nan nan nan nan nan nan nan nan nan nan nan nan nan nan nan nan nan nan nan
nan nan nan nan nan nan nan nan nan nan nan nan nan nan nan nan nan nan nan nan nan nan nan nan nan nan nan nan nan nan nan nan nan nan nan nan nan nan nan nan nan nan nan nan nan
nan nan nan nan nan nan nan nan nan nan nan nan nan nan nan nan nan nan nan nan nan nan nan nan nan nan nan nan nan nan nan nan nan nan nan nan nan nan nan nan nan nan nan nan nan
nan nan nan nan nan nan nan nan nan nan nan nan nan nan nan nan nan nan nan nan nan nan nan nan nan nan nan nan nan nan nan nan nan nan nan nan nan nan nan nan nan nan nan nan nan
nan nan nan nan nan nan nan nan nan nan nan nan nan nan nan nan nan nan nan nan nan nan nan nan nan nan nan nan nan nan nan nan nan nan nan nan nan nan nan nan nan nan nan nan nan
nan nan nan nan nan nan nan nan nan nan nan nan nan nan nan nan nan nan nan nan nan nan nan nan nan nan nan nan nan nan nan nan nan nan nan nan nan nan nan nan nan nan nan nan nan
nan nan nan nan nan nan nan nan nan nan nan nan nan nan nan nan nan nan nan nan nan nan nan nan nan nan nan nan nan nan nan nan nan nan nan nan nan nan nan nan nan nan nan nan nan
nan nan nan nan nan nan nan nan nan nan nan nan nan nan nan nan nan nan nan nan nan nan nan nan nan nan nan nan nan nan nan nan nan nan nan nan nan nan nan nan nan nan nan nan nan
nan nan nan nan nan nan nan nan nan nan nan nan nan nan nan nan nan nan nan nan nan nan nan nan nan nan nan nan nan nan nan nan nan nan nan nan nan nan nan nan nan nan nan nan nan
nan nan nan nan nan nan nan nan nan nan nan nan nan nan nan nan nan nan nan nan nan nan nan nan nan nan nan nan nan nan nan nan nan nan nan nan nan nan nan nan nan nan nan nan nan
nan nan nan nan nan nan nan nan nan nan nan nan nan nan nan nan nan nan nan nan nan nan nan nan nan nan nan nan nan nan nan nan nan nan nan nan nan nan nan nan nan nan nan nan nan
nan nan nan nan nan nan nan nan nan nan nan nan nan nan nan nan nan nan nan nan nan nan nan nan nan nan nan nan nan nan nan nan nan nan nan nan nan nan nan nan nan nan nan nan nan
nan nan nan nan nan nan nan nan nan nan nan nan nan nan nan nan nan nan nan nan nan nan nan nan nan nan nan nan nan nan nan nan nan nan nan nan nan nan nan nan nan nan nan nan nan
nan nan nan nan nan nan nan nan nan nan nan nan nan nan nan nan nan nan nan nan nan nan nan nan nan nan nan nan nan nan nan nan nan nan nan nan nan nan nan nan nan nan nan nan nan
nan nan nan nan nan nan nan nan nan nan nan nan nan nan nan nan nan nan nan nan nan nan nan nan nan nan nan nan nan nan nan nan nan nan nan nan nan nan nan nan nan nan nan nan nan